Regional Weather Roundup
Issued by NWS Albany, NY

Current Version | Previous Version | Graphics & Text | Print | Product List | Glossary Off
Versions: 1 2 3 4 5 6 7 8 9 10 11 12 13 14 15 16 17 18 19 20 21 22 23 24 25 26 27 28

000
ASUS41 KALY 301410
RWRALY

NEW YORK STATE HOURLY WEATHER ROUNDUP
NATIONAL WEATHER SERVICE ALBANY NY
1000 AM EDT TUE AUG 30 2016

NOTE: "FAIR" INDICATES FEW OR NO CLOUDS BELOW 12,000 FEET WITH NO
SIGNIFICANT WEATHER AND/OR NO OBSTRUCTIONS TO VISIBILITY.

NYZ032-033-038>043-046>054-057>066-NYZ062>081-082-084-301500-
EAST


CITY           SKY/WX    TMP DP  RH WIND       PRES   REMARKS
ALBANY         MOSUNNY   68  58  70 CALM      30.19S
GLENS FALLS    SUNNY     68  58  70 SE3       30.18F
POUGHKEEPSIE   MOSUNNY   69  56  62 CALM      30.18F
NEWBURGH       MOSUNNY   72  61  68 VRB5      30.21S
MONTGOMERY     SUNNY     73  59  61 CALM      30.20S
WHITE PLAINS   MOSUNNY   73  59  61 CALM      30.18F
ISLIP          MOSUNNY   76  63  63 S7        30.17S
NEW YORK CITY  MOSUNNY   75  61  61 NE10      30.17S
CENTRAL PARK   SUNNY     76  60  57 E5        30.20S
$$

NYZ005>009-017-018-044>046-055-056-301500-
CENTRAL


CITY           SKY/WX    TMP DP  RH WIND       PRES   REMARKS
FULTON         SUNNY     70  63  78 S6        30.17F
SYRACUSE       MOSUNNY   70  59  68 CALM      30.17F
ROME           SUNNY     65  60  84 CALM      30.20F
ELMIRA         CLOUDY    60  58  92 S3        30.20F
BINGHAMTON     SUNNY     64  59  83 SE3       30.21F
MONTICELLO     SUNNY     66  55  68 CALM      30.23S
$$

NYZ026>034-041>043-087-301500-
NORTH


CITY           SKY/WX    TMP DP  RH WIND       PRES   REMARKS
WATERTOWN      SUNNY     72  57  59 VRB7      30.16F
FORT DRUM      NOT AVBL
MASSENA        SUNNY     70  58  65 SW7       30.15F
SARANAC LAKE   SUNNY     64  54  69 SW5       30.19F
PLATTSBURGH    SUNNY     69  60  73 SE8       30.15F
$$

NYZ001>004-010>016-019>021-085-301500-
WEST


CITY           SKY/WX    TMP DP  RH WIND       PRES   REMARKS
NIAGARA FALLS  PTSUNNY   74  64  71 S6        30.16F
BUFFALO        MOSUNNY   74  61  63 SW7       30.17F
DUNKIRK        SUNNY     74  61  63 S8        30.18S
JAMESTOWN      SUNNY     66  61  82 CALM      30.22S
WELLSVILLE     SUNNY     65  61  87 S3        30.25S
ROCHESTER      MOSUNNY   70  61  73 SW7       30.17F
PENN YAN       SUNNY     69  59  70 SW5       30.20F
$$

             KEY
       WCI = WIND CHILL INDEX
       VSB = VISIBILITY
       HX  = HEAT INDEX
$$




USA.gov is the U.S. government's official web portal to all federal, state and local government web resources and services.